Location: Sternwarte ZA, Rosenfeld-Brittheim
(48.2889°N, 8.6789°E)
Time: 19:46:05
(UTC+01:00)

ISS - Pass Details

Date: 14 December 2017
Orbit: 402 x 407 km, 51.6° (Epoch: 11 December)

Event Time Altitude Azimuth Distance (km) Brightness Sun altitude
Rises 17:09:09 0° 291° (WNW) 2,332 0.7 -6.2°
Reaches altitude 10° 17:11:14 10° 292° (WNW) 1,469 -0.4 -6.5°
Maximum altitude 17:14:32 87° 23° (NNE) 412 -3.8 -7.0°
Drops below altitude 10° 17:17:49 10° 112° (ESE) 1,462 -1.4 -7.5°
Enters shadow 17:19:37 - 112° (ESE) 2,207 -0.5 -7.8°
